Regional Weather Roundup
Issued by NWS Binghamton, NY

Home | Current Version | Previous Version | Text Only | Print | Product List | Glossary On
Versions: 1 2 3 4 5 6 7 8 9 10 11 12 13 14 15 16 17 18 19 20 21 22 23 24 25 26 27 28 29 30 31 32 33 34 35 36 37 38 39 40 41 42 43 44 45 46 47 48 49 50
684
ASUS41 KBGM 111010
RWRBGM

REGIONAL WEATHER ROUNDUP
NATIONAL WEATHER SERVICE BINGHAMTON NY
500 AM EST THU FEB 11 2016

Note: "fair" indicates few or no clouds below 12,000 feet with no
significant weather and/or obstructions to visibility.

* = Station(s) that does not report precipitation, such as rain,
snow, etc, also no thunder or fog.

!NYZ009-015>018-022>025-036-037-044>046-055>057-062-111100
...CENTRAL NEW YORK...

CITY           SKY/WX    TMP DP  RH WIND       PRES   REMARKS
BINGHAMTON     PTCLDY     9   1  70 W7        29.71S WCI  -2
CORTLAND       FAIR      12   3  67 CALM      29.75R
DANSVILLE      PTCLDY    14   4  64 VRB7      29.83R WCI   4
ELMIRA         PTCLDY    14   4  64 W9        29.80R WCI   2
ITHACA         MOCLDY    13   4  67 W13       29.77S WCI  -2
HORNELL        LGT SNOW  12   9  85 W7        29.82R WCI   2
MONTICELLO     PTCLDY    14   3  62 W9G17     29.72R WCI   2
NORWICH        MOCLDY    14   0  52 CALM      29.75S
PENN YAN       PTCLDY    15   2  56 W10       29.79R WCI   2
ROME           CLOUDY    16   9  74 W7        29.77R WCI   6
SYRACUSE       FLURRIES  15   6  67 W21       29.78R WCI  -2
$$

!PAZ038>040-043-044-047-048-072-111100
...NORTHEAST PENNSYLVANIA...

CITY           SKY/WX    TMP DP  RH WIND       PRES   REMARKS
HAZLETON       CLEAR     12   3  67 W6        29.79R WCI   3
SCRANTON       CLEAR     14   1  56 W9        29.80R WCI   2
$$
&&
KEY
WCI = WIND CHILL INDEX
VSB = VISIBILITY
HX  = HEAT INDEX
$$




USA.gov is the U.S. government's official web portal to all federal, state and local government web resources and services.